Regional Weather Roundup
Issued by NWS

Home | Current Version | Previous Version | Text Only | Print | Product List | Glossary On
Versions: 1 2 3 4 5 6 7 8 9 10 11 12 13 14 15 16 17 18 19 20 21 22 23 24 25 26 27 28 29 30 31 32 33 34 35 36 37 38 39 40 41 42 43 44 45 46 47 48 49 50
000
ASUS45 KREV 271410
RWRNV
NEVADA REGIONAL WEATHER ROUNDUP
NATIONAL WEATHER SERVICE RENO NV
700 AM PDT TUE SEP 27 2016

NOTE: "FAIR" INDICATES FEW OR NO CLOUDS BELOW 12,000 FEET WITH NO
SIGNIFICANT WEATHER AND/OR OBSTRUCTIONS TO VISIBILITY.

NVZ001-003-004-271500-
WESTERN NEVADA

CITY           SKY/WX    TMP DP  RH WIND       PRES   REMARKS
RENO           CLEAR     50  34  54 CALM      30.18S
CARSON CITY    FAIR      45  28  53 CALM      30.21S
MINDEN         FAIR      36  23  60 SE6       30.21R
PYRAMID LAKE     N/A     63 N/A N/A W6          N/A
FALLON         CLEAR     44  26  49 SE7       30.14R
LOVELOCK       CLEAR     42  25  50 CALM      30.14S
HAWTHORNE        N/A     52  27  37 CALM      30.18R
$$

NVZ002-CAZ072-073-271500-
NORTHERN AND CENTRAL SIERRA

CITY           SKY/WX    TMP DP  RH WIND       PRES   REMARKS
S. LAKE TAHOE  CLEAR     34  27  75 S5        30.28R
TRUCKEE        CLEAR     36  28  75 CALM      30.28S
SQUAW VLY 8000 NOT AVBL
SUSANVILLE     CLEAR     46  32  57 W5        30.16R
MAMMOTH LAKES  FAIR      37  22  53 N5        30.33S
BRIDGEPORT       N/A     32  19  58 CALM      30.30S
$$

NVZ030-031-036-271500-
NORTHERN NEVADA

CITY           SKY/WX    TMP DP  RH WIND       PRES   REMARKS
ELKO           PTCLDY    45  38  76 E6        30.25S
WINNEMUCCA     PTCLDY    41  28  60 CALM      30.17R
WENDOVER       PTCLDY    48  41  76 CALM      30.24R
$$

NVZ035-037-271500-
CENTRAL NEVADA

CITY           SKY/WX    TMP DP  RH WIND       PRES   REMARKS
ELY            PTCLDY    36  30  79 S13       30.32R
EUREKA           N/A     43  33  68 SW8       30.27R
$$

NVZ013-014-271500-
SOUTH CENTRAL NEVADA

CITY           SKY/WX    TMP DP  RH WIND       PRES   REMARKS
TONOPAH        CLEAR     50  28  42 N9        30.24S
$$

NVZ017-020-022-271500-
SOUTHERN NEVADA

CITY           SKY/WX    TMP DP  RH WIND       PRES   REMARKS
LAS VEGAS      PTCLDY    70  32  24 SW3       30.03R
N. LAS VEGAS   CLEAR     68  35  29 CALM      30.03R
NELLIS AFB     CLEAR     67  32  28 NW7       30.02R HAZE
HENDERSON      CLEAR     63  35  35 S9        30.07R
MERCURY        CLEAR     61  27  27 E6        30.08S
$$



USA.gov is the U.S. government's official web portal to all federal, state and local government web resources and services.